sat.trackr.live / text

‹ back to catalog

ONEWEB-0519

NORAD 54137 · 2022-138AA

PAYLOAD ACTIVE UNKNOWN

§ Identity

Operator
Country
UK
Launch date
2022-10-22
Launch site
SRILR
Launch vehicle
Mass (kg)
RCS (m²)

Purposes: comms

External: N2YO · Heavens-Above · Gunter

§ Orbital elements

Epoch: 2026-09-20T00:25:30.779040Z

Period
109.11 min
Inclination
87.9106°
Eccentricity
0.0002101
Mean motion
13.19726680 rev/d
Perigee alt
1,184.2 km
Apogee alt
1,187.4 km
Semi-major
7,563.9 km
B*
1.5934e-4
RAAN
286.0745°
Arg perigee
94.3989°
Mean anomaly
265.7383°
Rev number
18,934

§ Raw data

ONEWEB-05191 54137U 22138AA  26263.01771735  .00000077  00000+0  15934-3 0  99942 54137  87.9106 286.0745 0002101  94.3989 265.7383 13.19726680189343

JSON: /api/v1/satellites/54137 · /tle

For live sub-satellite position, see the globe view (requires WebGL).

§ Visibility from observer

Set your observer location to see the next 7 days of passes ≥ 10°. The values pass through the URL so the page stays shareable.

No JS? Fill the form by hand. The geolocation button needs JavaScript.